TimeEDT,TemperatureF,Dew PointF,Humidity,Sea Level PressureIn,VisibilityMPH,Wind Direction,Wind SpeedMPH,Gust SpeedMPH,PrecipitationIn,Events,Conditions,WindDirDegrees,DateUTC
12:15 AM,53.6,44.6,72,30.20,10.0,North,11.5,17.3,N/A,,Overcast,10,2013-09-17 04:15:00
12:35 AM,53.6,42.8,67,30.20,10.0,NNE,10.4,19.6,N/A,,Overcast,30,2013-09-17 04:35:00
12:55 AM,53.6,42.8,67,30.21,10.0,NNE,15.0,24.2,N/A,,Overcast,30,2013-09-17 04:55:00
1:15 AM,53.6,42.8,67,30.22,10.0,NNE,16.1,23.0,N/A,,Overcast,20,2013-09-17 05:15:00
1:35 AM,53.6,41.0,62,30.23,10.0,NNE,13.8,25.3,N/A,,Overcast,30,2013-09-17 05:35:00
1:55 AM,53.6,41.0,62,30.23,10.0,NNE,15.0,26.5,N/A,,Overcast,20,2013-09-17 05:55:00
2:15 AM,51.8,41.0,67,30.24,10.0,NNE,13.8,25.3,N/A,,Overcast,30,2013-09-17 06:15:00
2:35 AM,51.8,41.0,67,30.24,10.0,NNE,10.4,25.3,N/A,,Overcast,20,2013-09-17 06:35:00
2:55 AM,51.8,41.0,67,30.24,10.0,NNE,15.0,27.6,N/A,,Overcast,20,2013-09-17 06:55:00
3:15 AM,51.8,41.0,67,30.25,10.0,NNE,16.1,23.0,N/A,,Overcast,30,2013-09-17 07:15:00
3:35 AM,50.0,41.0,71,30.25,10.0,NNE,19.6,24.2,N/A,,Overcast,30,2013-09-17 07:35:00
3:55 AM,50.0,39.2,66,30.25,10.0,NNE,15.0,25.3,N/A,,Overcast,30,2013-09-17 07:55:00
4:15 AM,51.8,39.2,62,30.26,10.0,NNE,13.8,26.5,N/A,,Overcast,30,2013-09-17 08:15:00
4:35 AM,50.0,39.2,66,30.26,10.0,NNE,13.8,25.3,N/A,,Overcast,30,2013-09-17 08:35:00
4:55 AM,50.0,39.2,66,30.26,10.0,NNE,13.8,20.7,N/A,,Overcast,30,2013-09-17 08:55:00
5:15 AM,50.0,39.2,66,30.27,10.0,NNE,16.1,21.9,N/A,,Overcast,30,2013-09-17 09:15:00
5:35 AM,50.0,39.2,66,30.28,10.0,NNE,12.7,20.7,N/A,,Overcast,30,2013-09-17 09:35:00
5:55 AM,50.0,39.2,66,30.29,10.0,NNE,8.1,18.4,N/A,,Overcast,30,2013-09-17 09:55:00
6:15 AM,50.0,39.2,66,30.30,10.0,NNE,11.5,18.4,N/A,,Overcast,30,2013-09-17 10:15:00
6:35 AM,50.0,39.2,66,30.30,10.0,NNE,9.2,-,N/A,,Overcast,30,2013-09-17 10:35:00
6:55 AM,50.0,39.2,66,30.32,10.0,NNE,12.7,18.4,N/A,,Overcast,30,2013-09-17 10:55:00
7:15 AM,50.0,37.4,62,30.32,10.0,NNE,9.2,18.4,N/A,,Overcast,20,2013-09-17 11:15:00
7:35 AM,50.0,37.4,62,30.33,10.0,NNE,11.5,16.1,N/A,,Overcast,20,2013-09-17 11:35:00
7:55 AM,50.0,37.4,62,30.34,10.0,NE,16.1,23.0,N/A,,Overcast,40,2013-09-17 11:55:00
8:15 AM,51.8,37.4,58,30.35,10.0,NNE,11.5,23.0,N/A,,Overcast,30,2013-09-17 12:15:00
8:35 AM,51.8,37.4,58,30.35,10.0,NE,12.7,21.9,N/A,,Overcast,40,2013-09-17 12:35:00
8:55 AM,51.8,35.6,54,30.36,10.0,NNE,12.7,21.9,N/A,,Mostly Cloudy,30,2013-09-17 12:55:00
9:15 AM,53.6,37.4,54,30.37,10.0,NNE,13.8,24.2,N/A,,Mostly Cloudy,20,2013-09-17 13:15:00
9:35 AM,53.6,37.4,54,30.37,10.0,NNE,19.6,25.3,N/A,,Overcast,30,2013-09-17 13:35:00
9:55 AM,53.6,37.4,54,30.38,10.0,NNE,13.8,28.8,N/A,,Overcast,30,2013-09-17 13:55:00
10:15 AM,53.6,37.4,54,30.38,10.0,NNE,12.7,24.2,N/A,,Overcast,20,2013-09-17 14:15:00
10:35 AM,55.4,37.4,51,30.38,10.0,NE,15.0,26.5,N/A,,Overcast,40,2013-09-17 14:35:00
10:55 AM,53.6,37.4,54,30.39,10.0,NE,16.1,25.3,N/A,,Mostly Cloudy,40,2013-09-17 14:55:00
11:15 AM,55.4,37.4,51,30.39,10.0,NE,18.4,28.8,N/A,,Mostly Cloudy,50,2013-09-17 15:15:00
11:35 AM,55.4,39.2,54,30.39,10.0,NNE,16.1,25.3,N/A,,Overcast,30,2013-09-17 15:35:00
11:55 AM,55.4,39.2,54,30.39,10.0,NNE,13.8,20.7,N/A,,Mostly Cloudy,30,2013-09-17 15:55:00
12:15 PM,55.4,37.4,51,30.39,10.0,NNE,15.0,28.8,N/A,,Scattered Clouds,30,2013-09-17 16:15:00
12:35 PM,57.2,39.2,51,30.39,10.0,NNE,15.0,23.0,N/A,,Partly Cloudy,20,2013-09-17 16:35:00
12:55 PM,57.2,39.2,51,30.39,10.0,NNE,17.3,25.3,N/A,,Partly Cloudy,30,2013-09-17 16:55:00
1:15 PM,55.4,39.2,54,30.39,10.0,NNE,13.8,25.3,N/A,,Scattered Clouds,20,2013-09-17 17:15:00
1:35 PM,55.4,39.2,54,30.38,10.0,NNE,10.4,24.2,N/A,,Mostly Cloudy,20,2013-09-17 17:35:00
1:55 PM,55.4,39.2,54,30.37,10.0,North,16.1,21.9,N/A,,Scattered Clouds,10,2013-09-17 17:55:00
2:15 PM,55.4,37.4,51,30.37,10.0,North,13.8,24.2,N/A,,Clear,10,2013-09-17 18:15:00
2:35 PM,55.4,37.4,51,30.36,10.0,North,13.8,21.9,N/A,,Clear,360,2013-09-17 18:35:00
2:55 PM,55.4,39.2,54,30.36,10.0,North,13.8,21.9,N/A,,Clear,10,2013-09-17 18:55:00
3:15 PM,55.4,39.2,54,30.35,10.0,North,16.1,20.7,N/A,,Clear,10,2013-09-17 19:15:00
3:35 PM,55.4,39.2,54,30.35,10.0,NNE,10.4,20.7,N/A,,Clear,20,2013-09-17 19:35:00
3:55 PM,55.4,39.2,54,30.35,10.0,NNE,15.0,20.7,N/A,,Clear,20,2013-09-17 19:55:00
4:15 PM,55.4,39.2,54,30.35,10.0,NNE,12.7,17.3,N/A,,Clear,20,2013-09-17 20:15:00
4:35 PM,55.4,39.2,54,30.35,10.0,NNE,13.8,20.7,N/A,,Clear,30,2013-09-17 20:35:00
4:55 PM,55.4,39.2,54,30.34,10.0,North,10.4,18.4,N/A,,Clear,10,2013-09-17 20:55:00
5:15 PM,55.4,39.2,54,30.34,10.0,North,11.5,17.3,N/A,,Clear,10,2013-09-17 21:15:00
5:35 PM,55.4,39.2,54,30.33,10.0,NNE,11.5,16.1,N/A,,Clear,30,2013-09-17 21:35:00
5:55 PM,53.6,39.2,58,30.33,10.0,NNE,6.9,-,N/A,,Clear,30,2013-09-17 21:55:00
6:15 PM,53.6,39.2,58,30.34,10.0,NNE,5.8,-,N/A,,Clear,20,2013-09-17 22:15:00
6:35 PM,51.8,41.0,67,30.34,10.0,Calm,Calm,-,N/A,,Clear,0,2013-09-17 22:35:00
6:55 PM,50.0,41.0,71,30.34,10.0,NNW,3.5,-,N/A,,Clear,330,2013-09-17 22:55:00
7:15 PM,50.0,41.0,71,30.33,10.0,North,4.6,-,N/A,,Clear,360,2013-09-17 23:15:00
7:35 PM,48.2,41.0,76,30.33,10.0,North,4.6,-,N/A,,Clear,360,2013-09-17 23:35:00
7:55 PM,46.4,41.0,81,30.34,10.0,NW,3.5,-,N/A,,Clear,320,2013-09-17 23:55:00
8:15 PM,44.6,39.2,81,30.34,10.0,North,3.5,-,N/A,,Clear,350,2013-09-18 00:15:00
8:35 PM,44.6,41.0,87,30.35,10.0,WSW,3.5,-,N/A,,Clear,240,2013-09-18 00:35:00
8:55 PM,42.8,39.2,87,30.35,10.0,Calm,Calm,-,N/A,,Clear,0,2013-09-18 00:55:00
9:15 PM,41.0,37.4,87,30.35,10.0,Calm,Calm,-,N/A,,Clear,0,2013-09-18 01:15:00
9:35 PM,41.0,39.2,93,30.34,10.0,North,3.5,-,N/A,,Clear,350,2013-09-18 01:35:00
9:55 PM,41.0,37.4,87,30.34,10.0,Calm,Calm,-,N/A,,Clear,0,2013-09-18 01:55:00
10:15 PM,41.0,37.4,87,30.34,10.0,Calm,Calm,-,N/A,,Clear,0,2013-09-18 02:15:00
10:35 PM,41.0,39.2,93,30.34,10.0,Calm,Calm,-,N/A,,Clear,0,2013-09-18 02:35:00
10:55 PM,39.2,37.4,93,30.34,10.0,Calm,Calm,-,N/A,,Clear,0,2013-09-18 02:55:00
11:15 PM,39.2,37.4,93,30.34,10.0,Calm,Calm,-,N/A,,Clear,0,2013-09-18 03:15:00
11:35 PM,37.4,37.4,100,30.34,10.0,Calm,Calm,-,N/A,,Clear,0,2013-09-18 03:35:00
11:55 PM,39.2,37.4,93,30.34,10.0,Calm,Calm,-,N/A,,Clear,0,2013-09-18 03:55:00